STARLINK-11136, 60407

Orbit data source: Space-Track

STARLINK-11136, 60407 is a payload satellite owned by SpaceX/Seattle (US) in LEO that was launched on Sat, 10 Aug 2024 UTC via an FALCON 9 launch vehicle from the Air Force Eastern Test Range (AFETR). Payload-class satellites include a variety of spacecraft equipped with specific instruments for various scientific and technological missions. These include communications satellites like Starlink; space stations such as the ISS; scientific satellites like the Hubble; Earth observation satellites from companies like Planet Labs, Umbra, and HawkEye 360; GPS; miniature CubeSats for education and research; and military/defense satellites.

Loading next visibility...
Identifier
60407, 2024-141K
Orbit
LEO
Country
Flag of USUS
Related business
Manufacturer
SpaceX/Seattle
Mission
Operational Commercial Communications
Bus & Motor
STARLINK V2MD, Unknown motor
Mass
960 kg wet, ~910 kg dry
Launch date (UTC)
2024-08-10 (1 year ago)
Launch vehicle
FALCON 9
Launch site
Air Force Eastern Test Range (AFETR)
Object type
Payload
Rocket body
Debris
Shape & HBR
Box + 2 Pan, 14.5 m
Radar Cross Section
36.964 m², Large (>1 m²)

Expand to show TLE details & history
Last TLE update: 23 hours ago

TLE from 23 hours ago
0 STARLINK-11136
1 60407U 24141K   25260.27030765 -.00000258  00000-0  27220-5 0  9998
2 60407  53.1600 221.2843 0000865  88.6643 271.4474 15.69696676 64459
Epoch: 2025-09-17T06:29Z
TLE epoch observation values (Epoch: 2025-09-17T06:29:14.58Z)
Latitude
-0.00005°
Longitude
127.52485°
Altitude
360.665 km
Speed
7.694 km/s
True Right ascension
14h 45m 08s
True Declination
0° 00' 00"
Sunlit
Object was in daylight at epoch
Visualization orbit readout
Latitude
Unknown
Longitude
Unknown
Altitude
Unknown
Speed
Unknown
Apparent Right ascension
Unknown
Apparent Declination
Unknown
Sunlit
N/A
Visualization observer readout
Local Sidereal Time
22:01:02
Azimuth
Unknown
Elevation
Unknown
Doppler factor
Unknown
Orbital elements
Apogee altitude
360.608 km
Perigee altitude
359.443 km
Semi-major axis
6,738.163 km
Eccentricity
0.00009
Inclination
53.16°
RAAN
221.2843°
Arg. of periapsis
88.6643°
True anomaly
271.43749°
Mean anomaly
271.4474°
Eccentric anomaly
271.44245°
Mean motion
3.92402 °/min
Orbital period
91.74 mins
BSTAR
0.000002722
Loading maneuver chart data...
Computing Atmospheric mass density...
Loading historical data...
Loading historical data...
Loading historical data...
Loading historical data...
Loading historical data...
Loading historical data...
Loading historical data...

Documentation

Showing up to 5 results
|